GAOFEN-12 03

Last updated on Mon Sep 07 2026 00:02:46 GMT+0000 (Coordinated Universal Time)

1 52912U 22069A 26249.65187179 .00000651 00000+0 92485-4 0 9998 2 52912 97.8142 135.4207 0000722 101.0292 259.1002 14.80142284226665
UTC large
Height (km)
Speed (km/s)
/
Latitude / Longitude
Inclination (degrees)
Orbital Period (minutes)
Azimuth
Elevation
Range (km)
Doppler Factor

Next 0 passes for location: London (51.5072 / 0.1276)

No passes found over London.
GAOFEN-12 03